GW3344 Weather Reports


time (UTC)temp
C
wind
direction
speed
KPH
gust
KPH
rain 1hr
cm
rain 24hr
cm
rain mn
cm
humidity
%
barometer
mb
20260503051310 2 225 0.0 0.0 0.00 0.00 0.00 83 1016.4
20260503050311 3 225 0.0 0.0 0.00 0.00 0.00 80 1016.7
20260503045311 3 225 0.0 0.0 0.00 0.00 0.00 77 1016.6
20260503044410 3 247 0.0 0.0 0.00 0.00 0.00 76 1016.7
20260503043412 3 270 3.2 4.8 0.00 0.00 0.00 75 1016.8
20260503042510 4 247 0.0 1.6 0.00 0.00 0.00 75 1017.0
20260503041512 4 247 1.6 3.2 0.00 0.00 0.00 75 1017.0
20260503035520 4 239 3.2 8.0 0.00 0.00 0.00 73 1017.1
20260503034521 5 266 4.8 6.4 0.00 0.00 0.00 71 1017.1
20260503033522 5 247 3.2 4.8 0.00 0.00 0.00 70 1017.3
20260503032522 5 245 4.8 6.4 0.00 0.00 0.00 67 1017.2
20260503031619 5 267 0.0 4.8 0.00 0.00 0.00 65 1017.3
20260503030719 5 247 1.6 3.2 0.00 0.00 0.00 65 1017.2
20260503024720 5 247 3.2 4.8 0.00 0.00 0.00 64 1017.5
20260503023722 5 247 3.2 4.8 0.00 0.03 0.00 61 1017.5
20260503022722 5 270 3.2 4.8 0.00 0.03 0.00 63 1017.5
20260503021721 5 270 0.0 1.6 0.00 0.03 0.00 62 1017.8
20260503014819 5 270 8.0 9.7 0.00 0.03 0.00 61 1017.6
20260503013821 6 265 6.4 8.0 0.00 0.03 0.00 61 1017.6
20260503012820 6 270 9.7 11.3 0.00 0.03 0.00 61 1017.5
20260503012721 6 270 8.0 11.3 0.00 0.03 0.00 61 1017.7
20260503011721 6 270 4.8 8.0 0.00 0.03 0.00 61 1017.6
20260503010819 6 270 6.4 8.0 0.00 0.03 0.00 61 1017.5
20260503005821 6 255 4.8 6.4 0.00 0.03 0.00 59 1017.5
20260503004821 6 262 8.0 9.7 0.00 0.03 0.00 58 1017.4
20260503003820 6 254 6.4 11.3 0.00 0.03 0.00 59 1017.4
20260503002820 6 270 8.0 9.7 0.00 0.03 0.00 60 1017.3
20260503001820 6 270 6.4 9.7 0.00 0.03 0.00 59 1017.2
20260502234818 6 273 8.0 9.7 0.00 0.03 0.00 61 1017.1
20260502234721 6 270 8.0 12.9 0.00 0.03 0.00 60 1017.1
20260502233819 6 270 8.0 11.3 0.00 0.03 0.00 63 1017.0
20260502232821 6 270 6.4 8.0 0.00 0.03 0.00 61 1017.1
20260502230819 6 270 4.8 6.4 0.00 0.03 0.00 59 1017.1
20260502224919 6 281 9.7 12.9 0.00 0.03 0.00 59 1017.0
20260502222919 6 270 6.4 9.7 0.00 0.03 0.00 61 1017.0
20260502221922 6 270 8.0 11.3 0.00 0.03 0.00 60 1017.1
20260502221019 7 258 6.4 9.7 0.00 0.03 0.00 58 1017.1
20260502220023 7 287 6.4 9.7 0.00 0.03 0.00 59 1017.2
20260502215019 7 274 11.3 14.5 0.00 0.03 0.00 58 1017.1
20260502214020 7 270 8.0 9.7 0.00 0.03 0.00 60 1017.1
20260502213920 7 270 8.0 11.3 0.00 0.03 0.00 59 1017.1
20260502212921 7 296 1.6 3.2 0.00 0.03 0.00 60 1017.2
20260502212019 7 294 6.4 9.7 0.00 0.03 0.00 58 1017.0
20260502210921 7 314 6.4 11.3 0.00 0.03 0.00 58 1017.1
20260502205920 8 290 6.4 9.7 0.00 0.03 0.00 57 1017.0
20260502204920 8 283 4.8 6.4 0.00 0.03 0.00 59 1017.0
20260502202921 8 298 6.4 9.7 0.00 0.03 0.00 56 1017.1
20260502202018 8 306 6.4 12.9 0.00 0.03 0.00 57 1017.0
20260502201021 7 333 4.8 8.0 0.00 0.03 0.00 59 1017.1
20260502200119 7 312 3.2 9.7 0.00 0.03 0.00 61 1017.2
20260502195120 7 290 4.8 6.4 0.00 0.03 0.00 60 1017.2
20260502194122 7 299 9.7 20.9 0.00 0.03 0.00 60 1017.3
20260502191219 7 309 6.4 14.5 0.00 0.03 0.00 64 1017.6
20260502190221 7 312 6.4 14.5 0.00 0.03 0.00 64 1017.7
20260502185220 7 301 4.8 8.0 0.00 0.03 0.00 65 1017.7
20260502183222 7 289 8.0 14.5 0.00 0.03 0.00 66 1017.6
20260502182220 7 304 8.0 14.5 0.00 0.03 0.00 68 1017.6
20260502181221 7 300 8.0 12.9 0.00 0.03 0.00 66 1017.6
20260502180220 7 281 11.3 17.7 0.00 0.03 0.00 66 1017.5
20260502170419 7 274 16.1 24.1 0.00 0.05 0.00 69 1017.4
20260502160519 7 294 9.7 12.9 0.00 0.05 0.00 66 1017.8
20260502151519 6 297 9.7 14.5 0.00 0.05 0.00 60 1017.6
20260502150520 6 268 14.5 19.3 0.00 0.05 0.00 57 1017.6
20260502130719 5 272 11.3 20.9 0.00 0.05 0.00 74 1018.0
20260502123720 4 272 8.0 12.9 0.00 0.05 0.00 78 1017.8
20260502122720 4 270 11.3 17.7 0.00 0.05 0.00 79 1017.8
20260502121719 3 278 11.3 17.7 0.00 0.05 0.00 81 1017.8
20260502120718 3 284 12.9 17.7 0.00 0.05 0.00 83 1017.8
20260502115719 3 274 9.7 16.1 0.00 0.05 0.00 84 1017.8
20260502113720 2 277 8.0 12.9 0.00 0.05 0.00 87 1017.8
20260502112721 2 261 6.4 12.9 0.00 0.05 0.00 88 1017.9
20260502111734 2 267 4.8 11.3 0.00 0.05 0.00 89 1017.6
20260502105718 2 215 8.0 12.9 0.00 0.05 0.00 89 1017.4
20260502104719 2 259 6.4 11.3 0.00 0.05 0.00 90 1017.0
20260502103720 2 241 4.8 9.7 0.00 0.05 0.00 90 1017.0
20260502102719 2 259 8.0 16.1 0.00 0.05 0.00 90 1016.8
20260502102620 2 270 3.2 6.4 0.00 0.05 0.00 90 1016.8
20260502100619 1 246 3.2 6.4 0.00 0.05 0.00 91 1016.8
20260502090720 1 247 0.0 0.0 0.00 0.05 0.00 88 1016.4
20260502070919 2 270 4.8 6.4 0.00 0.05 0.00 85 1016.1
20260502065921 2 270 3.2 6.4 0.00 0.05 0.00 82 1016.2
20260502064919 3 270 3.2 6.4 0.00 0.05 0.00 83 1016.0
20260502064818 3 270 3.2 6.4 0.00 0.05 0.00 83 1016.0
20260502063819 3 270 4.8 8.0 0.00 0.05 0.00 81 1016.4
20260502062818 3 284 4.8 9.7 0.00 0.05 0.00 80 1016.4
20260502061819 3 276 6.4 9.7 0.00 0.05 0.00 80 1016.5
20260502060919 3 283 1.6 4.8 0.00 0.05 0.00 79 1016.4
20260502055920 3 326 3.2 11.3 0.00 0.05 0.00 79 1016.3
20260502054020 4 283 4.8 8.0 0.00 0.05 0.00 80 1016.4
20260502052021 4 292 3.2 4.8 0.00 0.05 0.00 85 1016.4